Weather History for KADC - September, 2013

Change the Weather History Date:

Sunday, September 1, 2013

  Actual Average Record
Temperature  
Mean Temperature 57 °F -  
Max Temperature 66 °F 72 °F 92 °F (1937)
Min Temperature 48 °F 51 °F 33 °F (1935)
Degree Days  
Heating Degree Days 8    
Growing Degree Days 7 (Base 50)    
Moisture  
Dew Point 53 °F    
Average Humidity 74    
Maximum Humidity 88    
Minimum Humidity 59    
Precipitation  
Precipitation 0.00 in - - ()
Sea Level Pressure  
Sea Level Pressure 29.93 in    
Wind  
Wind Speed 9 mph (NW)    
Max Wind Speed 15 mph    
Max Gust Speed 23 mph    
Visibility 10 miles    
Events      
Averages and records for this station are not official NWS values.
T = Trace of Precipitation, MM = Missing Value Source: NWS Daily Summary

Daily Weather History Graph

Daily Weather History Graph

Search for Another Location

Airport or City:

Trip Planner

Search our weather history database for the weather conditions in past years. The results will help you decide how hot, cold, wet, or windy it might be!

Date:

Astronomy

Sep. 01, 2013 Rise Set
Actual Time 6:41 AM CDT 7:59 PM CDT
Civil Twilight 6:10 AM CDT 8:30 PM CDT
Nautical Twilight 5:32 AM CDT 9:07 PM CDT
Astronomical Twilight 4:52 AM CDT 9:47 PM CDT
Moon 2:55 AM CDT (9/1) 5:44 PM CDT (9/1)
Length of Visible Light 14h 20m
Length of Day
13h 17m
Waning Crescent, 13% of the Moon is Illuminated
Sep 1
Waning Crescent
Sep 5
New
Sep 12
First Quarter
Sep 19
Full
Sep 26
Last Quarter

Hourly Weather History & Observations

Time (CDT) Temp. Dew Point Humidity Pressure Visibility Wind Dir Wind Speed Gust Speed Precip Events Conditions
12:15 AM 64.4 °F 55.4 °F 73% 29.80 in 10.0 mi WNW 9.2 mph 18.4 mph N/A   Clear
12:34 AM 64.4 °F 55.4 °F 73% 29.80 in 10.0 mi WNW 9.2 mph - N/A   Clear
12:53 AM 62.6 °F 55.4 °F 77% 29.79 in 10.0 mi West 6.9 mph - N/A   Clear
1:15 AM 62.6 °F 55.4 °F 77% 29.80 in 10.0 mi WNW 6.9 mph - N/A   Clear
1:35 AM 62.6 °F 55.4 °F 77% 29.80 in 10.0 mi WNW 8.1 mph - N/A   Clear
1:52 AM 60.8 °F 55.4 °F 82% 29.81 in 10.0 mi WNW 6.9 mph - N/A   Clear
2:15 AM 60.8 °F 55.4 °F 82% 29.82 in 10.0 mi West 4.6 mph - N/A   Clear
2:34 AM 60.8 °F 55.4 °F 82% 29.82 in 10.0 mi WNW 8.1 mph - N/A   Scattered Clouds
2:53 AM 60.8 °F 57.2 °F 88% 29.82 in 10.0 mi NW 15.0 mph 18.4 mph N/A   Mostly Cloudy
3:15 AM 62.6 °F 57.2 °F 82% 29.83 in 10.0 mi NW 9.2 mph 17.3 mph N/A   Overcast
3:35 AM 62.6 °F 57.2 °F 82% 29.83 in 10.0 mi NW 10.4 mph - N/A   Overcast
3:52 AM 62.6 °F 57.2 °F 82% 29.83 in 10.0 mi WNW 10.4 mph - N/A   Overcast
4:14 AM 62.6 °F 57.2 °F 82% 29.83 in 10.0 mi NW 10.4 mph 16.1 mph N/A   Overcast
4:34 AM 62.6 °F 57.2 °F 82% 29.83 in 10.0 mi WNW 10.4 mph - N/A   Overcast
4:53 AM 62.6 °F 57.2 °F 82% 29.83 in 10.0 mi WNW 9.2 mph - N/A   Overcast
5:15 AM 62.6 °F 57.2 °F 82% 29.83 in 10.0 mi NW 12.7 mph 16.1 mph N/A   Overcast
5:35 AM 62.6 °F 57.2 °F 82% 29.83 in 10.0 mi WNW 8.1 mph - N/A   Overcast
5:53 AM 62.6 °F 57.2 °F 82% 29.84 in 10.0 mi WNW 11.5 mph 16.1 mph N/A   Overcast
6:15 AM 62.6 °F 57.2 °F 82% 29.84 in 10.0 mi NW 12.7 mph - N/A   Overcast
6:34 AM 62.6 °F 55.4 °F 77% 29.84 in 10.0 mi NW 10.4 mph - N/A   Overcast
6:53 AM 60.8 °F 55.4 °F 82% 29.85 in 10.0 mi NW 10.4 mph 17.3 mph N/A   Overcast
7:15 AM 60.8 °F 55.4 °F 82% 29.86 in 10.0 mi NW 13.8 mph - N/A   Mostly Cloudy
7:34 AM 59.0 °F 53.6 °F 82% 29.87 in 10.0 mi NW 12.7 mph 17.3 mph N/A   Scattered Clouds
7:53 AM 60.8 °F 53.6 °F 77% 29.87 in 10.0 mi NW 11.5 mph - N/A   Mostly Cloudy
8:15 AM 60.8 °F 53.6 °F 77% 29.88 in 10.0 mi NNW 15.0 mph 23.0 mph N/A   Overcast
8:34 AM 60.8 °F 53.6 °F 77% 29.89 in 10.0 mi NNW 11.5 mph 16.1 mph N/A   Overcast
8:53 AM 60.8 °F 53.6 °F 77% 29.89 in 10.0 mi NNW 12.7 mph 23.0 mph N/A   Overcast
9:15 AM 60.8 °F 53.6 °F 77% 29.90 in 10.0 mi NNW 10.4 mph - N/A   Overcast
9:35 AM 62.6 °F 53.6 °F 72% 29.91 in 10.0 mi NW 13.8 mph 19.6 mph N/A   Overcast
9:53 AM 60.8 °F 53.6 °F 77% 29.92 in 10.0 mi North 10.4 mph 16.1 mph N/A   Overcast
10:15 AM 60.8 °F 53.6 °F 77% 29.93 in 10.0 mi NW 11.5 mph 16.1 mph N/A   Overcast
10:35 AM 60.8 °F 53.6 °F 77% 29.94 in 10.0 mi NNW 6.9 mph - N/A   Overcast
10:53 AM 62.6 °F 53.6 °F 72% 29.94 in 10.0 mi North 10.4 mph 17.3 mph N/A   Overcast
11:15 AM 62.6 °F 53.6 °F 72% 29.94 in 10.0 mi NNW 9.2 mph - N/A   Overcast
11:35 AM 62.6 °F 53.6 °F 72% 29.95 in 10.0 mi NW 9.2 mph - N/A   Overcast
11:52 AM 62.6 °F 53.6 °F 72% 29.95 in 10.0 mi NW 13.8 mph 21.9 mph N/A   Overcast
12:14 PM 64.4 °F 53.6 °F 68% 29.95 in 10.0 mi NW 9.2 mph - N/A   Overcast
12:35 PM 62.6 °F 55.4 °F 77% 29.96 in 10.0 mi NW 15.0 mph 19.6 mph N/A   Overcast
12:53 PM 64.4 °F 55.4 °F 73% 29.96 in 10.0 mi WNW 9.2 mph 20.7 mph N/A   Overcast
1:15 PM 62.6 °F 53.6 °F 72% 29.97 in 10.0 mi NW 12.7 mph 17.3 mph N/A   Overcast
1:35 PM 62.6 °F 53.6 °F 72% 29.97 in 10.0 mi West 9.2 mph - N/A   Overcast
1:52 PM 64.4 °F 53.6 °F 68% 29.97 in 10.0 mi WNW 11.5 mph - N/A   Overcast
2:14 PM 64.4 °F 53.6 °F 68% 29.97 in 10.0 mi NW 11.5 mph 18.4 mph N/A   Overcast
2:35 PM 64.4 °F 53.6 °F 68% 29.97 in 10.0 mi NW 13.8 mph - N/A   Overcast
2:53 PM 66.2 °F 53.6 °F 64% 29.97 in 10.0 mi NW 11.5 mph 18.4 mph N/A   Overcast
3:14 PM 66.2 °F 53.6 °F 64% 29.97 in 10.0 mi NNW 11.5 mph - N/A   Overcast
3:34 PM 66.2 °F 53.6 °F 64% 29.97 in 10.0 mi NW 13.8 mph 19.6 mph N/A   Overcast
3:53 PM 66.2 °F 53.6 °F 64% 29.97 in 10.0 mi NW 12.7 mph 20.7 mph N/A   Overcast
4:14 PM 64.4 °F 53.6 °F 68% 29.98 in 10.0 mi NNW 11.5 mph 19.6 mph N/A   Mostly Cloudy
4:34 PM 64.4 °F 51.8 °F 64% 29.98 in 10.0 mi NW 12.7 mph 19.6 mph N/A   Mostly Cloudy
4:53 PM 66.2 °F 51.8 °F 60% 29.98 in 10.0 mi NNW 9.2 mph - N/A   Scattered Clouds
5:15 PM 66.2 °F 51.8 °F 60% 29.98 in 10.0 mi NNW 11.5 mph 20.7 mph N/A   Scattered Clouds
5:35 PM 66.2 °F 51.8 °F 60% 29.98 in 10.0 mi NNW 11.5 mph 16.1 mph N/A   Clear
5:53 PM 66.2 °F 51.8 °F 60% 29.98 in 10.0 mi NW 11.5 mph 18.4 mph N/A   Clear
6:15 PM 66.2 °F 51.8 °F 60% 29.98 in 10.0 mi North 10.4 mph - N/A   Clear
6:35 PM 64.4 °F 50.0 °F 59% 29.99 in 10.0 mi North 10.4 mph - N/A   Clear
6:52 PM 64.4 °F 50.0 °F 59% 29.99 in 10.0 mi North 9.2 mph 12.7 mph N/A   Clear
7:14 PM 62.6 °F 50.0 °F 63% 29.99 in 10.0 mi NNW 4.6 mph - N/A   Clear
7:35 PM 60.8 °F 48.2 °F 63% 29.99 in 10.0 mi NW 5.8 mph - N/A   Clear
7:52 PM 59.0 °F 48.2 °F 67% 30.00 in 10.0 mi NNW 5.8 mph - N/A   Clear
8:15 PM 55.4 °F 48.2 °F 77% 30.00 in 10.0 mi North 4.6 mph - N/A   Clear
8:35 PM 53.6 °F 48.2 °F 82% 30.01 in 10.0 mi North 3.5 mph - N/A   Clear
8:53 PM 53.6 °F 46.4 °F 77% 30.01 in 10.0 mi North 4.6 mph - N/A   Clear
9:14 PM 53.6 °F 46.4 °F 77% 30.02 in 10.0 mi North 4.6 mph - N/A   Clear
9:35 PM 53.6 °F 46.4 °F 77% 30.02 in 10.0 mi North 5.8 mph - N/A   Clear
9:53 PM 53.6 °F 46.4 °F 77% 30.03 in 10.0 mi North 5.8 mph - N/A   Clear
10:15 PM 53.6 °F 46.4 °F 77% 30.03 in 10.0 mi North 6.9 mph - N/A   Clear
10:35 PM 51.8 °F 46.4 °F 82% 30.04 in 10.0 mi North 5.8 mph - N/A   Clear
10:53 PM 51.8 °F 46.4 °F 82% 30.05 in 10.0 mi NNE 4.6 mph - N/A   Clear
11:15 PM 50.0 °F 46.4 °F 87% 30.05 in 10.0 mi North 3.5 mph - N/A   Clear
11:35 PM 48.2 °F 44.6 °F 87% 30.05 in 10.0 mi North 3.5 mph - N/A   Clear
11:52 PM 48.2 °F 44.6 °F 87% 30.05 in 10.0 mi Calm Calm - N/A   Clear